Stations météo

réclame
Mon MeteoGroup
Rheinstetten, Allemagne (10731): Température de l'air & dewpoint: 12.11.2017 00:00:00 - 18.11.2017 00:00:00 (CET)Rheinstetten, Allemagne (10731): Température de l'air 5cm & Température de l'air -5cm: 12.11.2017 00:00:00 - 18.11.2017 00:00:00 (CET)Rheinstetten, Allemagne (10731): Température de l'air -20cm & Température de l'air -100cm: 12.11.2017 00:00:00 - 18.11.2017 00:00:00 (CET)Rheinstetten, Allemagne (10731): Vitesse du vent & gusts: 12.11.2017 00:00:00 - 18.11.2017 00:00:00 (CET)Rheinstetten, Allemagne (10731): Direction du vent: 12.11.2017 00:00:00 - 18.11.2017 00:00:00 (CET)Rheinstetten, Allemagne (10731): reduced air pressure: 12.11.2017 00:00:00 - 18.11.2017 00:00:00 (CET)Rheinstetten, Allemagne (10731): visibility: 12.11.2017 00:00:00 - 18.11.2017 00:00:00 (CET)Rheinstetten, Allemagne (10731): Ensoleillement: 12.11.2017 00:00:00 - 18.11.2017 00:00:00 (CET)Rheinstetten, Allemagne (10731): Quantités de précipitations: 12.11.2017 00:00:00 - 18.11.2017 00:00:00 (CET)
Date & Time tt [°C] td [°C] tt 5cm [°C] tt -5cm [°C] tt -20cm [°C] tt -100cm [°C] ff [km/h] ff [knt] fx [km/h] fx [knt] dd ppp [hPa] vv [km] sd [min] rr [mm]
18.11.2017 00:00:00 4,3 3,7 3,8 4,7 5,7 9,0 4 2 5 3 SSW 1026,2 4,0 0 0,0
17.11.2017 23:00:00 4,2 3,4 3,7 4,7 5,8 9,0 2 1 4 2 NNE 1026,7 4,3 0 0,0
17.11.2017 22:00:00 4,7 3,5 3,6 5,0 5,8 9,0 3 2 6 4 WNW 1026,6 6 0 0,0
17.11.2017 21:00:00 4,8 3,5 4,6 5,1 5,9 9,0 4 2 9 5 E 1026,7 6 0 0,0
17.11.2017 20:00:00 4,8 3,4 4,4 5,2 5,9 9,0 6 3 13 7 E 1026,7 6 0 0,0
17.11.2017 19:00:00 5,1 3,5 4,8 5,3 5,9 9,0 7 4 12 7 ENE 1027,1 7 0 0,0
17.11.2017 18:00:00 5,2 3,4 4,7 5,5 5,9 9,1 8 5 12 6 N 1027,0 9 0 0,0
17.11.2017 17:00:00 5,3 3,6 4,7 5,7 5,9 9,1 6 3 13 7 N 1027,0 7 0 0,0
17.11.2017 16:00:00 5,4 3,4 5,0 6,3 5,7 9,1 10 5 13 7 NNE 1027,0 8 0 0,0
17.11.2017 15:00:00 5,5 3,3 5,9 6,6 5,5 9,1 5 3 12 6 NNE 1027,0 8 0 0,0
17.11.2017 14:00:00 4,9 2,9 5,7 6,3 5,2 9,1 3 1 7 4 NNE 1027,4 7 0 0,0
17.11.2017 13:00:00 4,3 2,5 4,7 5,5 5,0 9,1 4 2 8 5 WSW 1027,8 7 0 0,0
17.11.2017 12:00:00 3,6 2,2 4,0 4,6 4,8 9,1 5 3 9 5 S 1028,3 6 0 0,0
17.11.2017 11:00:00 3,1 2,0 3,5 4,1 4,7 9,1 5 3 8 5 S 1028,5 5 0 0,0
17.11.2017 10:00:00 2,8 1,7 2,9 3,7 4,7 9,2 6 4 13 7 SW 1028,2 4,4 0 0,0
17.11.2017 09:00:00 2,6 1,9 2,5 3,4 4,7 9,2 7 4 17 9 WSW 1028,0 3,3 0 0,0
17.11.2017 08:00:00 2,4 1,7 2,4 3,3 4,7 9,2 11 6 16 9 S 1027,6 2,4 0 0,0
17.11.2017 07:00:00 2,4 1,5 2,2 3,3 4,7 9,2 9 5 16 9 WSW 1027,6 4,0 0 0,0
17.11.2017 06:00:00 2,4 1,7 2,3 3,3 4,7 9,2 11 6 16 9 SSW 1027,1 3,3 0 0,1
17.11.2017 05:00:00 2,5 1,1 2,5 3,3 4,7 9,2 10 5 15 8 SSW 1027,2 6 0 0,0
17.11.2017 04:00:00 2,4 1,0 2,2 3,3 4,8 9,2 10 5 16 8 WSW 1027,1 6 0 0,0
17.11.2017 03:00:00 2,5 1,2 2,1 3,3 4,8 9,2 9 5 18 10 WSW 1027,2 7 0 0,1
17.11.2017 02:00:00 2,8 0,7 2,6 3,3 4,8 9,2 13 7 16 9 SW 1027,2 10 0 0,0
17.11.2017 01:00:00 2,7 0,8 2,5 3,3 4,9 9,3 9 5 18 10 SW 1027,3 10 0 0,0
17.11.2017 00:00:00 2,7 0,5 2,5 3,3 4,9 9,3 10 6 21 12 SW 1027,3 10 0 0,0
16.11.2017 23:00:00 2,5 0,9 2,4 3,4 5,0 9,3 8 4 18 10 SW 1027,1 10 0 0,0
16.11.2017 22:00:00 2,5 0,6 2,4 3,5 5,1 9,3 12 6 17 9 SW 1027,6 12 0 0,0
16.11.2017 21:00:00 2,6 0,9 2,4 3,6 5,1 9,3 13 7 19 10 SW 1027,4 11 0 0,0
16.11.2017 20:00:00 2,8 0,9 2,7 3,7 5,2 9,3 11 6 17 9 SW 1027,0 13 0 0,0
16.11.2017 19:00:00 2,9 1,0 2,7 3,9 5,3 9,4 10 5 16 9 SW 1026,6 11 0 0,0
16.11.2017 18:00:00 3,0 1,1 2,8 4,1 5,3 9,4 10 5 14 8 SW 1026,3 11 0 0,0
16.11.2017 17:00:00 3,1 0,9 2,9 4,4 5,4 9,4 10 5 15 8 SW 1026,1 11 0 0,0
16.11.2017 16:00:00 3,2 0,9 3,4 4,9 5,3 9,4 11 6 15 8 SSW 1025,9 12 0 0,0
16.11.2017 15:00:00 3,3 0,8 3,7 5,4 5,2 9,4 11 6 14 8 SW 1025,8 12 0 0,0
16.11.2017 14:00:00 3,3 0,8 4,0 5,6 4,9 9,4 11 6 17 9 SW 1025,9 11 0 0,0
16.11.2017 13:00:00 3,5 1,0 4,4 5,7 4,6 9,4 10 6 16 9 SSW 1026,1 15 1 0,0
16.11.2017 12:00:00 4,3 0,4 6,5 5,4 4,2 9,5 9 5 20 11 NNE 1026,2 11 17 0,0
16.11.2017 11:00:00 3,0 -0,5 3,9 4,0 3,9 9,5 11 6 22 12 ENE 1026,6 11 29 0,0
16.11.2017 10:00:00 2,3 -0,8 3,0 2,8 3,8 9,5 13 7 24 13 ENE 1026,4 10 52 0,0
16.11.2017 09:00:00 1,1 -1,1 1,3 1,9 3,8 9,5 15 8 23 12 ENE 1026,6 7 0 0,0
16.11.2017 08:00:00 0,7 -0,8 0,6 1,4 3,8 9,5 11 6 22 12 ENE 1026,2 5 0 0,0
16.11.2017 07:00:00 0,5 -0,8 0,4 1,4 3,8 9,5 11 6 22 12 E 1026,0 6 0 0,0
16.11.2017 06:00:00 0,7 -0,5 0,6 1,3 3,9 9,5 11 6 25 13 ENE 1025,9 5 0 0,0
16.11.2017 05:00:00 0,9 -0,3 0,6 0,9 4,0 9,5 14 8 26 14 ENE 1026,1 6 0 0,0
16.11.2017 04:00:00 1,0 -0,3 0,0 0,7 4,2 9,5 15 8 26 14 NE 1025,9 6 0 0,0
16.11.2017 03:00:00 1,1 -0,6 0,2 0,9 4,4 9,6 21 11 29 15 ENE 1026,1 9 0 0,0
16.11.2017 02:00:00 1,5 -0,3 0,1 1,1 4,6 9,6 13 7 21 12 NE 1026,4 11 0 0,0
16.11.2017 01:00:00 1,4 0,1 0,0 1,3 4,8 9,6 11 6 17 9 ENE 1026,2 9 0 0,0
16.11.2017 00:00:00 1,6 0,5 0,2 1,7 5,0 9,6 10 6 22 12 NE 1026,6 6 0 0,0
15.11.2017 23:00:00 2,5 0,9 1,1 2,1 5,3 9,6 15 8 21 11 NE 1026,7 8 0 0,0
15.11.2017 22:00:00 2,3 1,1 0,9 2,5 5,5 9,6 13 7 18 10 NNE 1026,9 7 0 0,0
15.11.2017 21:00:00 2,8 1,6 1,7 2,9 5,7 9,6 12 7 20 11 NE 1026,9 6 0 0,0
15.11.2017 20:00:00 3,6 1,9 2,5 3,4 6,0 9,6 14 8 19 11 NNE 1027,0 8 0 0,0
15.11.2017 19:00:00 3,2 1,6 1,7 3,7 6,3 9,7 9 5 18 10 NE 1027,2 8 0 0,0
15.11.2017 18:00:00 3,4 1,4 2,0 4,3 6,5 9,7 12 7 24 13 NE 1026,9 10 0 0,0
15.11.2017 17:00:00 4,5 1,7 3,3 5,5 6,7 9,7 16 9 25 13 NE 1026,6 12 0 0,0
15.11.2017 16:00:00 6,1 2,1 5,7 7,2 6,6 9,7 16 9 22 12 NNE 1026,3 17 57 0,0
15.11.2017 15:00:00 7,4 1,8 9,0 8,5 6,3 9,7 16 8 21 11 NNE 1026,4 22 60 0,0
15.11.2017 14:00:00 7,3 1,9 9,7 8,9 5,7 9,7 13 7 19 10 NNE 1026,7 17 60 0,0
15.11.2017 13:00:00 6,2 1,6 8,9 8,0 5,2 9,7 11 6 16 9 NNE 1027,4 14 60 0,0
15.11.2017 12:00:00 4,7 1,1 8,0 6,7 4,7 9,7 10 5 16 9 NNE 1028,1 15 60 0,0
15.11.2017 11:00:00 2,9 0,0 5,0 5,0 4,3 9,7 6 3 10 5 NNE 1028,7 14 60 0,0
15.11.2017 10:00:00 1,2 -0,7 3,2 3,1 4,1 9,8 3 2 7 4 N 1028,9 13 60 0,0
15.11.2017 09:00:00 -0,3 -0,6 0,4 1,8 4,1 9,8 2 1 4 2 NNE 1029,1 8 23 0,0
15.11.2017 08:00:00 -0,6 -0,8 -0,4 1,6 4,2 9,8 2 1 6 3 ESE 1028,8 0,1 0 0,0
15.11.2017 07:00:00 -1,3 -1,3 -1,1 1,3 4,3 9,8 0 0 7 4 N 1028,2 0,1 0 0,0
15.11.2017 06:00:00 -1,5 -1,7 -1,4 1,4 4,4 9,8 2 1 5 3 W 1028,1 0,1 0 0,0
15.11.2017 05:00:00 -1,3 -1,5 -1,3 1,4 4,5 9,8 6 4 8 4 S 1028,2 0,1 0 0,0
15.11.2017 04:00:00 -1,0 -1,0 -1,1 1,1 4,7 9,8 3 2 7 4 NNE 1028,3 0,2 0 0,0
15.11.2017 03:00:00 -1,0 -1,3 -1,9 0,9 4,9 9,8 6 3 8 5 NW 1028,4 0,3 0 0,0
15.11.2017 02:00:00 -0,9 -1,3 -2,0 1,3 5,2 9,8 5 3 6 3 SSE 1028,5 7 0 0,0
15.11.2017 01:00:00 -1,0 -1,3 -2,8 1,8 5,5 9,8 3 2 6 3 ESE 1028,8 4,9 0 0,0
15.11.2017 00:00:00 -0,3 -0,7 -1,5 2,4 5,7 9,8 3 1 5 3 N 1029,0 1,3 0 0,0
14.11.2017 23:00:00 0,1 -0,3 -0,5 2,6 6,0 9,8 2 1 4 2 ESE 1028,6 3,0 0 0,0
14.11.2017 22:00:00 0,2 -0,1 -1,2 2,8 6,3 9,8 2 1 7 4 SSE 1029,0 4,3 0 0,0
14.11.2017 21:00:00 0,9 0,4 -1,0 3,4 6,7 9,8 5 3 10 5 SSE 1028,7 3,2 0 0,0
14.11.2017 20:00:00 2,4 2,2 0,0 4,0 7,0 9,9 5 3 8 5 SSW 1028,4 0,1 0 0,0
14.11.2017 19:00:00 2,5 2,1 0,9 4,9 7,4 9,9 5 3 6 3 SSE 1028,1 2,4 0 0,0
14.11.2017 18:00:00 3,9 3,0 1,5 5,9 7,6 9,9 5 3 9 5 WSW 1027,6 4,6 0 0,0
14.11.2017 17:00:00 5,4 3,9 3,4 7,5 7,7 9,9 7 4 10 5 WSW 1027,0 8 28 0,0
14.11.2017 16:00:00 7,2 4,5 7,6 9,6 7,5 9,9 9 5 12 7 SSW 1026,7 14 60 0,0
14.11.2017 15:00:00 7,7 3,7 9,0 10,2 7,0 9,9 9 5 12 7 SW 1026,5 22 60 0,0
14.11.2017 14:00:00 7,8 2,4 8,8 10,4 6,4 9,9 6 4 11 6 S 1026,7 24 59 0,0
14.11.2017 13:00:00 7,0 4,1 7,9 8,9 5,9 9,9 3 1 7 4 SSW 1027,1 10 41 0,0
14.11.2017 12:00:00 4,0 3,4 4,8 6,8 5,6 9,9 3 2 6 4 NE 1027,4 0,6 0 0,0
14.11.2017 11:00:00 3,6 3,2 4,1 5,9 5,3 10,0 2 1 8 4 S 1027,8 0,8 0 0,0
14.11.2017 10:00:00 2,9 2,5 3,3 4,5 5,2 10,0 6 3 9 5 SW 1027,5 3,6 5 0,0
14.11.2017 09:00:00 3,5 2,4 3,5 3,5 5,2 10,0 3 2 6 4 W 1027,2 8 15 0,0
14.11.2017 08:00:00 2,9 2,2 1,8 3,5 5,2 10,0 4 2 8 4 S 1026,7 12 0 0,0
14.11.2017 07:00:00 2,9 2,3 2,8 3,6 5,2 10,0 3 2 8 4 SE 1026,1 7 0 0,0
14.11.2017 06:00:00 2,5 2,3 2,5 3,5 5,2 10,0 4 2 6 3 ESE 1025,6 7 0 0,0
14.11.2017 05:00:00 2,3 2,0 1,8 3,3 5,3 10,0 4 2 8 4 S 1025,3 6 0 0,0
14.11.2017 04:00:00 3,1 2,8 3,0 3,6 5,3 10,0 3 2 6 3 WSW 1025,0 7 0 0,0
14.11.2017 03:00:00 2,5 2,2 2,3 3,3 5,3 10,0 3 2 5 3 S 1024,7 7 0 0,0
14.11.2017 02:00:00 1,5 1,3 1,4 3,0 5,4 10,0 6 3 7 4 SSE 1024,3 1,0 0 0,0
14.11.2017 01:00:00 0,6 0,3 0,5 2,8 5,5 10,0 3 2 5 3 SE 1024,0 0,1 0 0,0
14.11.2017 00:00:00 1,2 0,8 0,3 2,7 5,7 10,0 3 1 5 3 SW 1023,7 0,1 0 0,0
13.11.2017 23:00:00 2,4 2,0 -0,1 3,3 5,9 10,0 2 1 5 3 SW 1023,5 4,6 0 0,0
13.11.2017 22:00:00 2,8 2,5 2,4 3,7 6,0 10,0 4 2 7 4 S 1023,0 5 0 0,0
13.11.2017 21:00:00 2,8 2,2 1,5 3,8 6,2 10,0 2 1 7 4 S 1022,3 5 0 0,0
13.11.2017 20:00:00 3,2 2,6 1,7 4,0 6,4 10,0 6 3 8 5 WSW 1021,7 9 0 0,0
13.11.2017 19:00:00 2,3 1,8 0,5 3,9 6,7 10,0 5 3 7 4 SSW 1021,1 10 0 0,0
13.11.2017 18:00:00 4,3 3,5 1,5 4,8 6,9 10,0 5 3 14 8 S 1020,2 15 0 0,0
13.11.2017 17:00:00 5,3 4,3 3,7 6,0 6,9 10,0 8 4 11 6 SSE 1019,6 17 0 0,0
13.11.2017 16:00:00 6,8 4,2 6,1 7,4 6,8 10,1 7 4 10 5 SW 1019,0 35 14 0,0
13.11.2017 15:00:00 7,0 4,2 6,9 7,3 6,6 10,1 4 2 10 5 W 1018,2 33 1 0,1
13.11.2017 14:00:00 7,0 4,4 6,7 7,0 6,4 10,1 4 2 14 8 E 1017,7 32 0 0,0
13.11.2017 13:00:00 6,4 4,4 6,5 6,7 6,1 10,0 12 7 16 8 SW 1017,2 23 0 0,0
13.11.2017 12:00:00 6,1 4,1 6,2 6,5 5,9 10,1 7 4 11 6 W 1017,0 27 0 0,2
13.11.2017 11:00:00 5,2 3,9 5,2 5,4 5,7 10,1 9 5 16 9 WSW 1016,7 6 0 0,1
13.11.2017 10:00:00 5,0 3,9 5,1 4,8 5,7 10,1 10 5 14 8 SW 1016,2 16 0 0,0
13.11.2017 09:00:00 4,4 3,3 4,3 4,4 5,6 10,1 8 5 16 8 S 1015,5 22 0 0,0
13.11.2017 08:00:00 4,3 3,2 3,8 4,2 5,6 10,1 10 5 14 8 SSW 1014,3 23 0 0,0
13.11.2017 07:00:00 4,2 3,0 3,8 4,1 5,6 10,0 9 5 17 9 SW 1013,6 23 0 0,0
13.11.2017 06:00:00 4,0 2,9 3,5 4,1 5,6 10,0 12 6 16 9 SW 1012,7 20 0 0,2
13.11.2017 05:00:00 4,0 2,6 3,4 4,0 5,6 10,0 14 7 18 10 SW 1012,0 5 0 0,1
13.11.2017 04:00:00 4,2 2,6 3,6 4,0 5,5 10,0 12 6 18 10 SW 1011,3 7 0 0,0
13.11.2017 03:00:00 4,1 2,2 3,7 3,8 5,6 10,0 12 6 16 9 WSW 1010,4 31 0 0,0
13.11.2017 02:00:00 4,0 2,3 3,3 3,7 5,6 10,0 13 7 16 9 SW 1009,9 33 0 0,0
13.11.2017 01:00:00 4,0 2,6 3,4 3,9 5,6 9,9 11 6 16 9 SW 1009,3 31 0 0,0
13.11.2017 00:00:00 4,1 2,2 3,6 3,8 5,6 9,9 15 8 21 11 SW 1008,8 35 0 0,0
12.11.2017 23:00:00 4,1 1,9 3,6 3,7 5,6 9,9 16 8 35 19 SW 1008,6 55 0 0,0
12.11.2017 22:00:00 4,3 1,9 3,8 3,7 5,5 9,8 20 11 31 17 WSW 1008,0 57 0 0,0
12.11.2017 21:00:00 4,1 2,1 3,6 3,5 5,5 9,8 16 8 28 15 WSW 1007,1 54 0 0,0
12.11.2017 20:00:00 4,4 2,7 3,5 3,8 5,4 9,7 21 11 28 15 SW 1006,1 54 0 0,0
12.11.2017 19:00:00 4,1 2,6 3,6 3,8 5,3 9,5 15 8 22 12 SW 1004,6 61 0 0,0
12.11.2017 18:00:00 4,2 2,6 3,8 4,6 5,1 9,4 13 7 24 13 W 1004,0 70 0 0,1
12.11.2017 17:00:00 3,7 2,7 3,5 4,9 5,3 9,5 9 5 16 9 SW 1002,5 46 0 0,4
12.11.2017 16:00:00 3,0 2,0 2,9 5,1 5,6 9,7 6 3 22 12 NW 1001,1 8 0 0,0
12.11.2017 15:00:00 2,8 2,0 2,8 5,7 6,6 10,2 13 7 35 19 NNW 1000,2 36 0 0,6
12.11.2017 14:00:00 3,9 3,4 3,9 6,2 7,3 10,3 10 5 54 29 ESE 998,4 25 0 10,0
12.11.2017 13:00:00 5,5 4,8 5,4 7,0 7,4 10,4 17 9 39 21 N 997,4 2,1 0 7,5
12.11.2017 12:00:00 6,6 6,0 6,7 7,1 7,4 10,4 4 2 12 6 N 997,8 2,5 0 3,5
12.11.2017 11:00:00 6,4 5,7 6,3 6,9 7,4 10,4 6 4 10 5 NNE 1000,9 2,7 0 3,2
12.11.2017 10:00:00 6,3 5,7 6,2 6,7 7,4 10,4 8 4 10 6 N 1003,1 4,5 0 1,9
12.11.2017 09:00:00 6,0 5,4 5,9 6,6 7,6 10,4 6 3 10 5 ENE 1004,6 7 0 1,5
12.11.2017 08:00:00 5,9 5,4 5,7 6,6 7,7 10,4 4 2 5 3 SSE 1006,7 6 0 0,5
12.11.2017 07:00:00 6,2 5,5 5,8 6,6 7,7 10,4 4 2 6 3 S 1008,0 15 0 0,4
12.11.2017 06:00:00 6,3 5,6 5,9 6,7 7,7 10,4 2 1 6 3 ESE 1008,8 12 0 0,1
12.11.2017 05:00:00 6,4 5,5 5,9 6,8 7,8 10,4 8 4 12 7 SE 1009,4 22 0 1,1
12.11.2017 04:00:00 6,6 5,6 6,1 7,0 7,9 10,4 6 4 16 8 SSE 1010,0 16 0 1,2
12.11.2017 03:00:00 6,9 6,1 6,6 7,3 8,0 10,4 8 4 10 5 S 1010,4 7 0 1,2
12.11.2017 02:00:00 7,1 6,5 6,8 7,5 8,1 10,5 5 3 9 5 ESE 1010,8 2,8 0 1,0
12.11.2017 01:00:00 7,3 6,8 7,1 7,6 8,2 10,5 5 3 11 6 ESE 1011,0 3,0 0 1,5
12.11.2017 00:00:00 7,4 6,7 7,2 7,8 8,3 10,6 6 3 15 8 ENE 1010,9 2,6 0 0,7

tt = Température de l'air
td = dewpoint
tt 5cm = Température de l'air 5cm
tt -5cm = Température de l'air -5cm
tt -20cm = Température de l'air -20cm
tt -100cm = Température de l'air -100cm
ff = Vitesse du vent
fx = gusts
dd = Direction du vent
ppp = reduced air pressure
vv = visibility
sd = Ensoleillement
rr = Quantités de précipitations

stations d'obs. à proximité